Location: Newark
(42.8481°N, 0.4872°E)
Time: 23:29:30
(UTC+00:00)

Transit 2A - Pass Details

Date: 03 November 2020
Orbit: 595 x 963 km, 66.7° (Epoch: 03 December)

Event Time Altitude Azimuth Distance (km) Brightness Sun altitude
Rises 01:35:43 0° 262° (W) 3,645 - -53.1°
Reaches altitude 10° 01:39:11 10° 280° (W) 2,694 - -52.6°
Maximum altitude 01:43:26 18° 323° (NW) 2,123 - -52.0°
Drops below altitude 10° 01:47:35 10° 5° (N) 2,620 - -51.4°
Exits shadow 01:49:46 - 19° (NNE) 3,172 9.6 -51.1°
Sets 01:50:56 0° 24° (NNE) 3,508 9.9 -50.9°
